Total_Precipitation_Accumulation
1.78 1.50 1.18 0.96 0.40 0.37 0.27 0.28 0.18 0.15 0.68 0.95 1.07 1.56 1.26 0.80 0.69 0.96 0.75 0.62 0.57 0.50 0.44 0.47 0.54 0.53 0.73 0.47 0.74 0.57 0.57 0.50 0.57 0.49 0.54 0.53 0.43 0.47 0.50 0.49 0.54 0.83 0.63 0.70 0.55 0.59 0.71 0.61 0.42 0.64 0.55 0.92 0.71 0.72 0.54 0.39 0.44 0.51 0.57 0.59 0.54 0.66 0.67 0.81 0.78 0.67 0.45 0.37 0.87 0.52 0.35 0.26 0.33 0.28 0.16 0.15 0.14 0.18 0.26 0.20 0.25 0.39 0.31 0.57 0.15
0.88 0.99 0.93 0.91 0.24 0.43 0.56 0.41 0.57 0.27 0.48 1.12 1.70 0.85 0.30 0.37 0.38 0.44 0.44 0.47 0.40 0.43 0.42 0.46 0.39 0.40 0.36 0.45 0.22 0.30 0.34 0.45 0.35 0.58 0.36 0.51 0.62 0.27 0.53 0.28 0.68 0.79 0.52 0.48 0.56 0.83 0.49 0.54 0.67 0.68 0.59 0.49 0.53 0.70 0.57 0.51 0.44 0.42 0.52 0.61 0.56 0.46 0.42 0.54 0.56 0.61 0.52 0.33 0.43 0.41 0.39 0.33 0.24 0.25 0.23 0.18 0.15 0.20 0.21 0.29 0.35 0.48 0.62 0.35 0.62
0.40 0.47 0.49 0.39 0.37 0.51 0.52 0.44 0.32 0.19 0.57 0.56 0.52 0.48 0.53 0.60 0.52 0.49 0.43 0.39 0.36 0.37 0.44 0.38 0.33 0.27 0.34 0.46 0.42 0.35 0.76 0.36 0.46 0.29 0.22 0.36 0.31 0.29 0.30 0.42 0.74 0.87 0.65 0.84 0.83 0.50 0.69 0.56 0.46 0.53 0.57 0.52 0.71 0.51 0.50 0.57 0.68 0.78 0.62 0.50 0.57 0.52 0.82 0.63 0.61 0.55 0.37 0.39 0.54 0.54 0.40 0.38 0.33 0.28 0.22 0.19 0.27 0.26 0.24 0.26 0.22 0.15 0.16 0.28 0.33
0.75 0.84 0.55 0.48 0.73 0.99 0.66 0.53 0.50 0.17 0.55 0.69 0.99 0.43 0.32 0.53 0.57 0.55 0.42 0.48 0.35 0.36 0.40 0.29 0.36 0.36 0.37 0.28 0.33 0.44 0.36 0.32 0.22 0.43 0.51 0.46 0.35 0.37 0.29 0.44 0.74 0.79 0.68 0.51 0.69 0.68 0.53 0.67 0.41 0.38 0.45 0.54 0.67 0.55 0.57 0.48 0.46 0.66 0.44 0.45 0.42 0.39 0.61 0.40 0.45 0.46 0.48 0.48 0.66 0.49 0.42 0.42 0.37 0.34 0.22 0.27 0.20 0.35 0.26 0.29 0.24 0.26 0.23 0.14 0.25
0.34 0.37 1.32 1.55 1.02 0.68 0.68 0.80 0.63 0.60 0.85 1.30 0.78 0.80 0.49 0.50 0.74 0.73 0.47 0.66 0.56 0.36 0.23 0.35 0.43 0.28 0.30 0.22 0.31 0.46 0.43 0.42 0.41 0.32 0.41 0.55 0.63 0.48 0.25 0.25 0.50 0.54 0.56 0.67 1.05 0.83 0.63 0.52 0.61 0.63 0.86 0.56 0.47 0.43 0.37 0.44 0.53 0.37 0.50 0.43 0.44 0.45 0.53 0.44 0.48 0.54 0.66 0.55 0.42 0.36 0.60 0.51 0.95 0.75 0.44 0.52 1.08 0.55 1.42 0.80 0.29 0.39 0.34 0.22 0.34
1.61 2.07 2.81 2.28 1.51 2.43 1.54 1.02 1.33 1.36 1.57 1.11 0.89 0.90 0.77 0.69 0.92 0.91 0.57 0.80 0.47 0.31 0.43 0.29 0.30 0.38 0.42 0.32 0.48 0.35 0.39 0.41 0.57 0.30 0.32 0.66 0.76 0.36 0.50 0.47 0.37 0.58 0.63 0.63 0.55 0.65 0.62 0.63 0.64 0.74 0.70 0.68 0.43 0.42 0.56 0.64 0.51 0.42 0.38 0.39 0.54 0.51 0.49 0.51 0.75 0.61 0.54 0.43 0.43 0.92 0.68 0.91 0.59 0.46 0.79 0.48 0.43 0.33 0.55 0.74 0.96 1.57 1.82 1.10 0.20
2.66 2.64 2.60 2.23 2.52 1.45 1.56 2.34 1.73 2.32 1.91 1.64 1.79 1.15 0.99 1.13 1.25 1.10 0.92 0.75 0.70 0.83 0.72 0.49 0.45 0.40 0.30 0.36 0.51 0.85 0.34 0.34 0.26 0.54 0.48 0.35 0.48 0.32 0.42 0.50 0.51 0.40 0.38 0.72 0.52 0.52 0.68 0.71 0.61 0.67 0.87 1.06 0.60 0.48 0.49 0.55 0.66 0.44 0.47 0.47 0.51 0.56 0.64 0.64 0.63 0.97 0.72 0.78 1.02 0.79 0.82 0.56 0.64 0.59 0.43 0.62 1.37 1.49 1.52 0.50 0.50 0.51 0.49 0.36 0.84
2.92 1.40 1.50 2.01 1.64 2.04 1.88 1.95 1.97 1.87 1.68 1.84 2.03 2.04 1.69 1.43 1.25 1.12 1.10 0.75 0.77 0.81 0.73 0.56 0.50 0.31 0.34 0.91 0.92 0.72 0.57 0.44 0.32 0.26 0.29 0.48 0.45 0.62 0.34 0.34 0.37 0.41 0.61 0.43 0.60 0.72 0.66 0.47 0.65 1.48 0.99 0.72 0.73 0.72 0.86 0.81 0.61 0.42 0.38 0.56 0.74 0.84 0.64 0.70 0.78 0.88 0.93 0.94 0.99 0.74 0.54 0.63 0.50 0.79 1.51 1.33 0.76 1.11 0.88 0.63 0.45 0.38 0.43 0.49 0.39
1.37 1.85 1.67 1.55 1.45 1.81 1.89 1.95 1.62 1.48 1.89 2.28 2.34 2.26 1.95 1.54 1.19 1.06 0.72 0.71 0.98 0.54 0.52 0.62 0.33 0.29 0.28 0.54 0.65 0.58 0.45 0.46 0.53 0.63 0.60 0.59 0.32 0.27 0.59 0.49 0.26 0.37 0.44 0.39 0.28 0.34 0.40 0.54 0.49 0.79 0.67 0.69 0.78 0.82 1.16 1.22 0.96 0.64 0.42 0.52 0.76 0.59 0.50 0.81 1.09 0.96 0.65 0.63 1.15 1.09 0.69 0.54 0.51 0.47 0.43 0.48 0.52 0.51 0.43 0.41 0.44 0.49 0.77 0.70 0.62
1.37 1.78 1.15 0.80 1.01 1.59 1.29 1.32 1.64 1.40 2.61 2.00 1.38 1.56 1.44 1.29 0.91 0.91 1.02 0.80 0.58 0.45 0.38 0.39 0.42 0.44 0.34 0.33 0.92 0.73 0.84 0.43 0.38 0.42 0.38 0.31 0.35 0.32 0.69 0.78 0.43 0.36 0.37 0.43 0.41 0.37 0.37 0.37 0.42 0.38 0.17 0.38 0.52 0.40 0.47 0.47 0.43 0.61 0.76 0.89 0.68 0.58 0.64 0.63 0.71 0.86 0.93 0.76 0.77 0.70 0.69 0.55 0.52 0.47 0.43 0.41 0.38 0.30 0.56 0.56 0.92 0.61 0.48 1.37 3.40
1.57 0.97 1.38 0.95 1.26 1.47 1.83 2.62 1.73 2.81 2.36 1.60 1.41 1.81 1.23 1.20 0.92 0.46 0.52 0.39 0.44 0.51 0.45 0.46 0.32 1.12 0.58 0.49 0.43 0.41 0.24 0.17 0.22 0.23 0.20 0.18 0.19 0.33 0.78 0.79 0.20 0.30 0.32 0.67 0.35 0.36 0.26 0.63 0.94 0.53 0.45 0.52 1.19 0.31 0.45 0.32 0.24 0.26 0.32 0.41 0.65 0.68 0.64 0.57 0.58 1.59 1.04 1.00 2.47 3.70 1.80 0.53 0.33 0.38 0.34 0.39 0.39 0.39 0.31 0.34 0.64 0.38 0.39 0.70 0.75
1.31 1.59 1.27 1.04 1.37 1.82 1.72 2.34 1.51 1.78 1.87 1.74 1.30 1.97 1.57 1.22 1.02 0.90 0.59 0.87 0.98 0.69 0.46 0.26 0.52 0.71 0.68 0.47 0.48 0.50 0.48 0.63 0.22 0.11 0.06 0.04 0.06 0.48 0.68 0.48 0.21 0.37 0.39 0.46 0.66 0.44 0.78 1.09 1.13 0.56 0.58 0.63 0.44 1.17 1.07 0.69 0.40 0.23 0.39 0.24 0.27 0.37 0.53 1.31 0.88 0.89 0.87 1.39 1.18 1.05 1.75 0.89 0.58 0.46 0.39 0.38 0.42 0.54 0.45 0.46 0.38 0.61 0.44 0.41 0.48
1.65 1.00 1.06 1.10 1.50 1.21 1.77 1.66 1.32 1.40 1.30 1.84 1.76 1.35 1.35 0.86 1.28 1.78 1.30 0.75 0.90 0.59 0.81 0.36 0.40 0.79 0.50 0.78 0.66 0.99 1.15 0.71 0.41 0.28 0.22 0.21 0.22 0.37 0.53 0.60 0.42 0.50 0.57 1.00 0.61 0.84 0.59 1.15 0.92 0.85 0.64 0.37 0.39 0.42 0.29 0.43 0.48 0.32 0.47 0.30 0.25 0.38 0.44 0.44 0.73 0.72 0.87 1.15 1.00 1.67 0.64 0.49 0.48 0.64 0.38 0.49 0.39 0.50 0.41 0.47 0.46 0.43 0.49 0.58 0.30
1.06 1.07 0.83 0.98 1.27 1.10 1.16 1.09 1.25 1.71 2.00 1.63 1.71 1.58 1.98 1.48 1.20 1.42 1.41 1.30 0.90 0.76 0.61 0.53 0.63 0.66 0.48 0.28 0.40 0.72 1.25 0.57 0.36 0.19 0.15 0.19 0.13 0.29 0.62 0.61 0.59 0.54 0.56 0.92 1.04 1.21 1.77 0.78 0.66 0.62 0.60 0.45 0.63 0.55 0.69 0.53 0.54 0.72 0.49 0.52 0.59 0.40 0.68 0.52 0.92 0.42 0.67 0.95 1.12 0.77 0.65 0.63 0.61 0.67 0.73 0.68 0.93 0.84 0.70 0.65 0.50 0.45 0.46 0.50 0.35
0.71 0.83 0.97 0.80 1.19 1.22 1.34 1.00 1.13 1.13 1.17 1.54 1.73 2.08 1.59 1.36 1.16 1.23 1.56 1.29 1.03 0.76 0.60 0.51 0.47 0.57 0.54 0.50 0.61 0.72 0.56 0.37 0.17 0.53 0.40 0.35 0.42 0.41 0.72 0.59 0.68 0.53 0.78 1.29 0.74 0.42 1.26 0.69 1.03 0.58 0.52 0.47 0.60 0.45 0.46 0.39 0.41 0.49 0.76 0.98 1.13 0.81 0.78 0.73 0.59 0.64 0.45 0.59 0.83 0.90 1.40 1.19 1.08 0.85 1.59 0.98 1.25 0.77 0.80 0.89 0.65 0.68 0.73 0.57 0.78
0.72 0.76 0.65 0.94 0.68 1.02 1.14 1.23 1.16 1.61 1.82 2.09 1.77 1.34 1.20 0.98 0.89 0.70 0.63 0.55 0.51 0.52 0.42 0.52 0.42 0.37 0.41 0.33 0.29 1.26 1.26 0.55 0.38 0.30 0.22 0.47 0.62 0.47 0.46 0.61 0.68 0.55 1.33 0.96 0.91 0.65 1.35 0.96 0.69 0.51 0.48 0.41 0.37 0.33 0.49 0.49 0.68 0.46 0.44 0.75 0.86 0.67 0.50 0.36 0.32 0.40 0.81 0.87 0.76 1.07 0.65 1.31 0.68 0.83 0.80 0.72 1.03 1.04 1.19 1.50 2.02 1.78 1.61 1.14 0.89
1.47 0.92 0.91 0.67 0.69 1.34 1.60 1.47 1.75 1.80 1.99 1.72 1.42 1.27 1.20 1.16 1.05 1.00 0.99 0.68 0.51 0.83 0.34 0.34 0.24 0.81 0.50 0.35 0.24 0.37 0.32 0.35 0.38 0.76 0.50 0.41 0.28 0.27 0.22 0.35 0.53 0.85 0.77 0.56 1.18 1.20 0.60 0.63 0.95 0.71 0.85 0.88 0.33 0.35 0.46 0.42 1.04 1.00 0.76 1.02 0.53 0.54 0.38 0.34 0.42 0.35 0.40 0.43 0.37 0.48 0.44 0.41 0.47 0.71 0.66 0.75 1.42 0.95 1.47 1.52 1.54 1.40 2.23 1.68 1.10
1.20 1.22 1.48 1.54 1.92 1.60 1.96 1.59 1.03 1.12 1.55 1.33 1.58 1.55 1.80 1.73 1.38 1.47 1.39 1.04 0.91 0.75 1.13 0.70 0.80 0.50 0.68 0.62 0.30 0.67 1.41 1.24 0.54 0.30 0.18 0.23 0.34 0.39 0.74 0.51 0.43 0.30 0.61 0.55 0.59 0.54 0.70 0.49 0.39 1.05 0.64 0.50 0.47 0.30 0.34 0.49 0.81 0.79 0.66 0.37 0.51 0.52 0.43 0.42 1.11 0.71 0.53 0.59 0.54 0.88 0.70 0.37 0.37 0.43 0.53 0.73 1.10 1.22 1.84 2.01 1.55 1.43 1.40 1.26 1.44
1.40 1.43 1.21 1.64 2.18 2.49 1.83 1.89 1.55 1.25 1.23 1.34 1.00 1.24 1.22 1.19 1.72 1.40 1.48 1.48 1.35 1.11 0.94 0.76 0.81 0.81 1.36 1.47 0.82 0.46 0.53 0.37 0.25 0.33 0.35 0.50 0.63 0.78 0.88 0.71 0.32 0.65 0.70 0.56 0.67 0.43 0.56 0.44 0.28 0.29 0.58 0.32 0.46 0.36 0.38 0.75 0.96 0.93 0.80 0.66 0.90 0.55 0.41 0.51 0.73 0.95 1.21 1.27 1.32 0.98 1.70 1.14 1.80 1.34 1.53 0.56 0.70 0.84 1.02 1.24 1.59 1.49 1.62 1.40 1.17
0.56 1.00 1.45 1.82 2.14 2.22 2.50 2.59 2.30 2.05 1.41 1.35 1.31 1.49 1.61 1.52 1.41 1.46 1.55 1.51 1.49 1.29 1.00 0.95 0.85 0.78 0.62 0.63 0.72 0.66 0.54 0.32 0.23 0.25 0.40 0.42 0.40 0.54 0.36 0.40 0.99 0.51 0.86 0.39 0.42 0.54 0.33 0.27 0.58 0.35 0.31 0.27 0.76 0.81 0.54 0.41 0.50 0.57 0.71 0.65 1.04 0.74 0.49 0.79 1.10 0.89 0.89 0.90 0.70 0.44 0.62 0.39 0.43 0.47 0.47 0.53 1.19 0.98 0.73 0.94 1.10 1.50 1.49 1.42 1.29
0.40 0.54 0.67 1.26 1.76 1.81 1.83 1.89 1.95 2.25 2.02 1.90 1.87 1.70 1.66 1.63 1.68 1.69 1.88 1.78 1.92 1.80 1.70 1.42 1.12 0.90 0.82 0.68 0.72 0.70 0.70 0.59 0.55 0.40 0.31 0.47 0.53 0.50 0.50 0.54 0.57 0.54 0.52 0.35 0.33 0.53 0.53 0.44 0.48 0.39 0.24 0.34 0.50 0.39 0.35 0.57 1.22 1.23 0.52 0.57 0.65 1.11 1.52 1.30 0.97 0.63 0.80 0.86 0.70 0.73 0.70 0.68 0.66 0.59 0.79 0.67 0.81 0.59 0.90 1.24 0.96 1.53 1.96 1.89 1.70
0.29 0.39 0.30 0.45 0.54 0.97 1.36 1.42 1.82 2.07 1.60 1.29 1.33 1.17 1.23 1.65 1.93 1.70 2.32 2.05 1.54 1.62 1.49 1.46 1.37 1.17 1.21 1.12 1.06 1.09 0.93 0.88 0.85 0.74 0.64 0.48 0.38 0.66 1.05 0.82 0.70 0.74 0.69 0.63 0.55 0.59 0.55 0.56 0.87 0.76 0.63 0.64 0.54 0.75 0.69 0.54 0.75 1.68 0.56 0.73 1.26 0.69 1.07 0.78 0.72 0.53 0.50 0.75 0.72 0.74 0.85 0.90 0.80 0.81 1.05 0.97 1.10 1.01 0.87 0.90 0.98 2.03 1.62 1.60 2.34
0.22 0.26 0.32 0.45 0.39 0.43 0.86 0.99 1.33 1.32 1.46 1.70 1.31 1.27 1.11 1.14 1.19 1.31 1.38 1.45 1.37 1.50 2.11 1.84 1.55 1.50 1.37 1.30 1.34 1.32 1.37 1.47 1.28 1.27 1.01 0.93 0.80 0.74 0.77 0.76 0.81 0.83 0.87 0.94 0.77 0.80 0.80 0.88 0.69 0.71 1.17 1.39 1.05 0.99 1.08 0.93 1.15 1.23 1.17 1.08 0.82 0.90 1.05 0.79 0.73 0.66 0.60 0.65 0.68 0.81 0.88 1.00 1.07 1.21 1.35 1.62 1.60 1.47 1.70 1.52 1.48 1.67 1.41 1.19 1.12
0.64 0.79 0.27 0.31 0.37 0.49 0.93 0.67 1.09 1.10 1.20 1.90 2.78 1.81 1.21 1.07 1.08 1.05 1.04 1.57 2.26 1.87 1.54 1.42 1.34 1.40 1.50 1.42 1.43 1.48 1.41 1.48 1.32 1.29 1.35 1.25 1.12 1.21 1.26 1.21 1.09 1.09 1.22 1.17 0.93 0.98 1.10 1.15 0.77 0.72 0.89 0.99 0.93 0.98 1.01 0.79 0.86 0.90 0.91 0.97 1.40 1.29 1.07 1.24 1.23 1.01 1.15 0.98 0.93 0.99 1.03 1.14 1.35 1.53 1.71 1.54 1.40 1.44 1.40 1.86 1.50 1.36 1.40 1.66 1.28
1.42 1.97 1.78 1.11 0.60 0.45 1.17 1.49 1.19 1.21 0.89 0.58 0.71 1.00 1.22 1.36 1.11 1.03 1.29 1.46 1.32 1.06 1.02 1.05 1.12 1.43 1.47 1.71 1.94 1.52 1.45 1.43 1.43 1.51 1.20 1.30 1.36 1.37 1.39 1.32 1.55 1.27 1.21 0.93 0.84 1.07 0.88 0.90 0.74 0.93 0.90 0.89 1.02 1.11 0.95 1.00 1.26 1.23 1.17 1.17 1.03 1.30 1.11 1.14 1.20 1.22 1.09 1.11 1.27 1.37 1.38 1.63 1.57 1.71 1.98 1.84 1.74 1.59 1.41 1.38 1.48 1.47 1.55 1.43 1.49
0.61 1.22 0.91 1.21 1.42 2.07 2.14 2.07 1.31 0.89 0.55 0.67 0.40 0.47 0.51 0.81 1.23 1.37 1.09 1.06 1.08 1.03 1.01 0.92 1.04 1.06 1.13 1.34 1.64 1.61 1.35 1.17 1.16 1.38 1.54 1.58 1.55 1.39 1.32 1.26 1.28 1.11 1.36 1.52 1.26 1.11 1.30 1.24 0.97 0.80 0.95 1.10 1.16 1.24 1.47 1.37 1.27 1.35 1.16 1.20 1.38 1.31 1.34 1.46 1.37 1.38 1.58 1.66 1.79 1.90 1.98 1.86 2.11 2.14 1.99 1.89 1.97 1.87 1.71 1.69 1.64 1.88 1.91 2.30 2.14
0.85 1.29 1.20 1.08 1.47 1.48 0.82 0.51 0.37 0.60 0.70 0.25 0.24 0.27 0.30 0.44 0.46 0.61 1.11 1.01 1.41 1.04 1.35 1.54 1.34 1.86 2.00 1.78 1.65 1.86 1.81 1.36 1.34 1.10 1.00 0.98 1.27 1.67 1.71 1.69 1.58 1.25 1.13 1.19 1.20 1.03 0.95 0.95 0.99 1.07 0.99 1.05 1.17 1.26 1.45 1.37 1.48 1.57 1.68 1.38 1.49 1.54 1.37 1.44 1.49 1.56 1.81 1.81 1.84 1.84 2.08 1.87 1.61 1.76 2.04 1.86 1.85 1.97 2.00 2.12 1.97 2.01 1.85 1.81 1.65
1.09 0.94 0.61 0.28 0.33 0.64 0.19 0.18 0.30 0.22 0.17 0.18 0.23 0.20 0.42 0.30 0.35 0.29 0.37 0.52 0.82 1.57 0.95 1.07 1.01 0.87 0.87 0.83 1.04 1.04 1.13 1.25 1.15 1.12 1.05 1.00 0.92 0.90 0.93 1.21 1.19 1.27 1.12 1.04 1.09 1.35 1.17 0.94 0.93 1.00 0.98 1.09 1.16 1.21 1.28 1.42 1.58 1.57 1.51 1.62 1.70 1.60 1.59 1.67 1.70 1.74 1.78 1.70 1.83 1.92 1.92 1.94 1.69 1.57 1.67 1.63 1.70 1.84 1.74 1.87 1.98 2.06 1.97 1.76 1.60
0.23 0.22 0.19 0.16 0.17 0.44 0.12 0.11 0.18 0.15 0.18 0.18 0.17 0.22 0.27 0.17 0.21 0.28 0.51 0.38 0.47 0.74 0.88 0.76 1.02 1.29 0.80 1.01 0.80 0.70 0.78 1.02 1.16 1.09 1.33 1.33 1.40 1.09 1.32 1.24 1.26 1.17 1.30 1.17 1.17 1.11 1.02 1.04 0.99 1.01 1.08 1.13 1.17 1.22 1.23 1.27 1.36 1.52 1.61 1.66 1.57 1.62 1.62 1.60 1.79 1.73 1.68 1.45 1.47 1.52 1.47 1.62 1.58 1.57 1.55 1.52 1.56 1.75 1.58 1.47 1.55 1.64 1.73 1.56 1.62
0.18 0.41 0.29 0.17 0.14 0.17 0.15 0.08 0.13 0.26 0.14 0.13 0.16 0.12 0.09 0.11 0.30 0.57 0.70 0.22 0.24 0.28 0.23 0.43 0.35 0.51 0.59 0.66 0.59 0.74 0.68 0.73 0.75 0.82 0.71 0.73 0.89 1.01 1.01 1.08 1.11 1.00 0.86 0.86 1.16 1.14 1.20 1.17 1.14 1.06 1.03 1.03 1.14 1.22 1.26 1.27 1.27 1.35 1.38 1.46 1.53 1.45 1.51 1.61 1.66 1.69 1.45 1.21 1.13 1.20 1.32 1.35 1.41 1.48 1.45 1.54 1.55 1.63 1.74 1.59 1.66 1.51 1.58 1.91 1.59
0.12 0.15 0.13 0.14 0.16 0.36 0.16 0.15 0.25 0.33 0.36 0.27 0.19 0.19 0.29 0.16 0.16 0.18 0.20 0.22 0.24 0.27 0.37 0.33 0.35 0.27 0.41 0.47 0.40 0.35 0.38 0.37 0.50 0.74 0.70 0.66 0.75 0.76 0.80 0.73 0.99 0.90 0.83 1.16 0.97 0.81 0.75 0.92 1.20 0.89 0.99 0.96 1.04 1.07 1.09 1.16 1.22 1.28 1.42 1.48 1.52 1.55 1.54 1.55 1.52 1.44 1.38 1.33 1.04 0.93 0.85 1.03 1.12 1.19 1.39 1.47 1.43 1.40 1.32 1.68 1.55 1.38 1.45 1.77 1.83
0.07 0.10 0.18 0.25 0.28 0.31 0.36 0.30 0.31 0.14 0.13 0.15 0.18 0.26 0.35 0.38 0.24 0.23 0.16 0.11 0.10 0.11 0.14 0.13 0.14 0.15 0.15 0.23 0.36 0.46 0.73 0.49 0.31 0.39 0.29 0.37 0.48 0.48 0.47 0.63 0.58 0.48 0.63 0.78 0.80 0.70 0.75 0.70 0.71 0.77 0.83 0.80 0.86 0.87 0.93 1.02 1.05 1.08 0.95 1.11 1.20 1.22 1.32 1.42 1.28 1.18 1.21 1.20 1.14 1.03 0.93 0.95 1.06 1.06 1.12 1.17 1.24 1.20 1.06 1.07 1.29 1.31 1.27 1.20 1.32
0.08 0.11 0.15 0.14 0.61 0.39 0.14 0.23 0.22 0.09 0.18 0.17 0.44 0.22 0.34 0.33 0.46 0.73 0.92 0.59 0.35 0.39 0.16 0.21 0.14 0.14 0.15 0.15 0.13 0.11 0.18 0.34 0.48 0.58 0.47 0.33 0.31 0.49 0.53 0.37 0.53 0.75 0.46 0.41 0.70 0.74 0.60 0.65 0.64 0.71 0.63 0.74 0.72 0.83 0.80 0.87 0.86 0.89 0.98 1.01 1.04 0.92 0.86 0.88 0.87 0.88 0.80 0.89 0.86 0.94 0.84 0.78 0.81 0.87 0.95 0.97 1.07 1.17 1.05 0.94 0.96 1.08 1.09 1.07 1.24
0.75 0.29 0.30 0.37 0.21 0.23 0.18 0.12 0.16 0.29 0.32 0.32 0.17 0.19 0.14 0.15 0.33 0.44 0.32 0.62 0.64 0.28 0.47 0.25 0.13 0.09 0.07 0.07 0.10 0.12 0.13 0.18 0.18 0.13 0.20 0.21 0.30 0.40 0.37 0.50 0.32 0.38 0.34 0.32 0.33 0.39 0.54 0.49 0.58 0.50 0.50 0.47 0.51 0.52 0.63 0.78 0.69 0.73 0.82 0.92 1.03 0.91 0.84 0.77 0.78 0.78 0.73 0.71 0.76 0.80 0.88 0.79 0.71 0.72 0.73 0.78 0.72 0.74 0.78 0.83 0.83 0.90 0.93 0.99 1.11
0.95 1.10 0.67 0.67 1.17 1.14 1.22 0.95 0.67 0.40 0.64 0.26 0.17 0.44 0.36 0.23 0.25 0.44 0.41 0.16 0.14 0.23 0.44 0.60 0.78 0.64 0.98 0.77 0.31 0.21 0.14 0.09 0.19 0.18 0.20 0.20 0.22 0.20 0.26 0.41 0.46 0.40 0.44 0.37 0.35 0.30 0.35 0.42 0.67 0.59 0.46 0.46 0.49 0.46 0.51 0.50 0.67 0.69 0.79 0.81 0.75 0.80 0.78 0.81 0.86 0.79 0.69 0.62 0.60 0.61 0.66 0.72 0.81 0.79 0.74 0.82 0.82 0.72 0.70 0.71 0.75 0.71 0.77 0.75 0.81
0.67 0.57 0.73 0.92 1.05 0.85 0.70 0.57 0.67 0.45 0.26 0.34 0.51 0.72 0.66 0.39 0.34 0.51 0.80 0.76 0.48 0.26 0.17 0.09 0.25 0.30 0.34 0.43 0.37 0.42 0.29 0.30 0.55 0.65 0.43 0.13 0.18 0.23 0.20 0.17 0.29 0.35 0.28 0.24 0.27 0.35 0.30 0.35 0.39 0.48 0.57 0.44 0.39 0.45 0.43 0.47 0.44 0.46 0.52 0.67 0.61 0.72 0.67 0.76 0.61 0.63 0.62 0.64 0.58 0.53 0.52 0.56 0.59 0.65 0.71 0.74 0.80 0.90 0.82 0.83 0.79 0.85 0.83 0.80 0.81
1.03 1.12 1.08 0.94 0.61 0.74 0.76 0.72 0.70 0.78 0.53 0.76 0.56 0.56 0.67 0.54 0.47 0.34 0.35 0.27 0.20 0.26 0.38 0.24 0.17 0.15 0.18 0.14 0.19 0.38 0.40 0.34 0.47 0.18 0.28 0.38 0.30 0.41 0.45 0.21 0.36 0.34 0.29 0.32 0.35 0.31 0.43 0.37 0.31 0.45 0.40 0.36 0.34 0.49 0.35 0.65 0.43 0.40 0.38 0.38 0.38 0.44 0.51 0.55 0.54 0.56 0.51 0.54 0.54 0.58 0.57 0.55 0.54 0.58 0.63 0.68 0.62 0.69 0.77 0.74 0.73 0.72 0.71 0.67 0.71
1.13 1.39 1.17 0.91 1.10 1.00 0.96 1.01 1.08 0.73 0.78 0.98 0.48 0.62 0.52 0.37 0.29 0.27 0.20 0.21 0.18 0.29 0.37 0.16 0.24 0.35 0.15 0.23 0.18 0.28 0.40 0.24 0.28 0.28 0.23 0.11 0.42 0.39 0.29 0.46 0.45 0.57 0.33 0.25 0.33 0.31 0.39 0.38 0.38 0.36 0.39 0.34 0.31 0.28 0.27 0.39 0.37 0.39 0.36 0.35 0.31 0.27 0.27 0.31 0.35 0.43 0.49 0.63 0.55 0.51 0.58 0.61 0.60 0.61 0.60 0.59 0.53 0.50 0.51 0.55 0.58 0.61 0.59 0.57 0.61
0.80 0.68 0.64 0.63 0.56 0.68 0.78 0.94 0.76 0.63 0.65 0.67 0.61 0.32 0.33 0.25 0.18 0.21 0.29 0.22 0.23 0.16 0.34 0.24 0.33 0.38 0.20 0.17 0.10 0.36 0.15 0.32 0.36 0.39 0.52 0.73 0.60 0.50 0.20 0.43 0.40 0.51 0.42 0.48 0.44 0.23 0.21 0.17 0.27 0.32 0.24 0.27 0.34 0.38 0.25 0.32 0.29 0.29 0.31 0.33 0.34 0.30 0.28 0.27 0.27 0.31 0.40 0.51 0.60 0.55 0.53 0.51 0.48 0.47 0.45 0.44 0.41 0.36 0.39 0.43 0.46 0.47 0.53 0.53 0.51
0.68 0.97 0.73 0.57 0.60 0.63 0.54 0.62 0.56 0.62 0.74 0.49 0.49 0.35 0.26 0.27 0.17 0.27 0.23 0.15 0.25 0.33 0.33 0.23 0.18 0.14 0.20 0.33 0.17 0.13 0.14 0.21 0.37 0.36 0.22 0.22 0.40 0.75 0.93 0.95 0.97 0.58 0.78 0.55 0.38 0.31 0.28 0.29 0.21 0.25 0.28 0.20 0.25 0.28 0.30 0.26 0.30 0.28 0.31 0.29 0.39 0.35 0.37 0.39 0.41 0.41 0.41 0.36 0.33 0.33 0.37 0.40 0.35 0.33 0.30 0.25 0.23 0.24 0.25 0.26 0.28 0.34 0.39 0.40 0.38
0.80 0.79 0.64 0.50 0.54 0.45 0.42 0.39 0.42 0.42 0.34 0.52 0.64 0.34 0.21 0.13 0.11 0.15 0.19 0.27 0.46 0.42 0.17 0.30 0.44 0.35 0.28 0.27 0.19 0.29 0.41 0.31 0.23 0.22 0.22 0.54 0.19 0.70 0.63 0.22 0.23 0.31 0.34 0.24 0.31 0.44 0.37 0.17 0.11 0.14 0.19 0.27 0.32 0.34 0.42 0.43 0.36 0.35 0.34 0.34 0.37 0.40 0.42 0.44 0.44 0.44 0.39 0.31 0.29 0.31 0.31 0.31 0.30 0.29 0.26 0.21 0.19 0.20 0.19 0.19 0.21 0.22 0.24 0.26 0.30
0.68 0.63 0.64 0.68 0.62 0.59 0.47 0.41 0.42 0.31 0.34 0.24 0.25 0.64 0.49 0.34 0.22 0.28 0.33 0.36 0.26 0.69 0.82 0.87 0.72 0.78 0.66 0.16 0.13 0.24 0.68 0.79 0.76 0.44 0.41 0.45 0.35 0.20 0.51 0.20 0.14 0.15 0.20 0.14 0.16 0.16 0.21 0.18 0.17 0.17 0.17 0.22 0.39 0.48 0.46 0.47 0.50 0.52 0.54 0.49 0.43 0.41 0.41 0.39 0.35 0.37 0.38 0.39 0.32 0.27 0.25 0.23 0.23 0.21 0.21 0.18 0.17 0.15 0.15 0.16 0.18 0.18 0.17 0.16 0.19
0.76 0.68 0.65 0.64 0.61 0.60 0.58 0.54 0.45 0.39 0.42 0.40 0.48 0.41 0.51 1.02 0.60 0.27 0.30 0.54 0.48 0.43 0.45 0.49 0.60 0.37 0.48 0.39 0.48 0.42 0.36 0.71 0.36 0.43 0.38 0.30 0.24 0.15 0.16 0.20 0.19 0.16 0.13 0.09 0.06 0.05 0.07 0.11 0.13 0.19 0.21 0.33 0.53 0.67 0.74 0.67 0.56 0.52 0.50 0.46 0.38 0.33 0.30 0.30 0.31 0.33 0.32 0.29 0.25 0.24 0.27 0.26 0.22 0.18 0.15 0.14 0.14 0.14 0.14 0.15 0.14 0.14 0.13 0.14 0.17
0.57 0.57 0.59 0.57 0.55 0.53 0.53 0.44 0.37 0.29 0.33 0.20 0.26 0.28 0.28 0.18 0.60 0.79 0.72 0.36 0.45 0.67 0.86 0.36 0.41 0.17 0.19 0.18 0.40 0.55 0.36 0.18 0.55 0.42 0.45 0.27 0.19 0.13 0.10 0.12 0.17 0.14 0.12 0.08 0.06 0.04 0.04 0.09 0.13 0.18 0.24 0.41 0.47 0.47 0.45 0.40 0.36 0.34 0.34 0.35 0.33 0.29 0.32 0.36 0.38 0.39 0.37 0.30 0.24 0.22 0.20 0.17 0.15 0.15 0.14 0.12 0.13 0.15 0.14 0.13 0.14 0.11 0.10 0.11 0.13
0.43 0.39 0.42 0.48 0.47 0.58 0.60 0.49 0.38 0.34 0.30 0.30 0.34 0.28 0.24 0.14 0.25 0.56 0.20 0.37 0.19 0.20 0.24 0.38 0.52 0.21 0.09 0.41 0.12 0.25 0.36 0.34 0.17 0.43 0.39 0.61 0.37 0.14 0.11 0.10 0.11 0.13 0.10 0.05 0.04 0.02 0.05 0.04 0.07 0.11 0.11 0.18 0.25 0.30 0.30 0.27 0.25 0.25 0.26 0.29 0.36 0.38 0.39 0.41 0.41 0.34 0.28 0.24 0.20 0.18 0.20 0.16 0.14 0.13 0.13 0.11 0.11 0.14 0.14 0.13 0.14 0.11 0.11 0.11 0.10
0.19 0.38 0.22 0.25 0.24 0.21 0.22 0.23 0.22 0.20 0.24 0.36 0.35 0.29 0.20 0.15 0.19 0.26 0.20 0.14 0.19 0.12 0.09 0.16 0.38 0.20 0.21 0.12 0.12 0.11 0.08 0.09 0.19 0.24 0.31 0.43 0.32 0.27 0.26 0.06 0.07 0.07 0.09 0.12 0.08 0.16 0.15 0.08 0.08 0.09 0.09 0.10 0.11 0.14 0.14 0.13 0.15 0.15 0.18 0.21 0.26 0.32 0.32 0.32 0.29 0.26 0.21 0.19 0.16 0.15 0.17 0.14 0.12 0.12 0.12 0.10 0.09 0.10 0.10 0.10 0.11 0.10 0.09 0.10 0.14
0.17 0.17 0.15 0.14 0.14 0.14 0.12 0.12 0.13 0.15 0.17 0.14 0.12 0.11 0.10 0.10 0.11 0.13 0.25 0.14 0.08 0.07 0.05 0.09 0.31 0.12 0.20 0.10 0.05 0.05 0.05 0.04 0.05 0.08 0.10 0.13 0.24 0.28 0.23 0.09 0.09 0.07 0.09 0.10 0.09 0.10 0.09 0.10 0.09 0.07 0.07 0.08 0.11 0.08 0.04 0.05 0.06 0.08 0.09 0.12 0.17 0.22 0.24 0.21 0.18 0.19 0.16 0.12 0.10 0.11 0.10 0.12 0.14 0.13 0.10 0.07 0.07 0.06 0.07 0.08 0.09 0.10 0.09 0.10 0.15
0.15 0.17 0.31 0.61 0.21 0.21 0.22 0.22 0.22 0.16 0.13 0.12 0.10 0.09 0.08 0.08 0.09 0.09 0.10 0.11 0.08 0.07 0.05 0.07 0.11 0.09 0.07 0.07 0.05 0.04 0.05 0.04 0.04 0.03 0.04 0.07 0.13 0.20 0.24 0.22 0.16 0.18 0.18 0.10 0.10 0.10 0.12 0.16 0.18 0.20 0.20 0.18 0.09 0.03 0.03 0.04 0.04 0.04 0.05 0.08 0.13 0.15 0.12 0.11 0.09 0.08 0.08 0.07 0.07 0.08 0.09 0.09 0.12 0.14 0.11 0.08 0.06 0.08 0.07 0.07 0.07 0.06 0.06 0.07 0.12
0.17 0.18 0.47 0.54 0.30 0.22 0.20 0.19 0.19 0.18 0.14 0.12 0.11 0.10 0.09 0.09 0.09 0.09 0.09 0.08 0.05 0.05 0.06 0.08 0.11 0.12 0.08 0.06 0.04 0.05 0.05 0.04 0.04 0.05 0.05 0.06 0.07 0.14 0.23 0.28 0.26 0.22 0.17 0.17 0.17 0.18 0.19 0.19 0.17 0.15 0.11 0.05 0.03 0.02 0.01 0.02 0.02 0.03 0.06 0.08 0.09 0.07 0.06 0.07 0.06 0.06 0.06 0.05 0.06 0.06 0.08 0.08 0.08 0.09 0.10 0.08 0.05 0.06 0.09 0.08 0.08 0.10 0.10 0.08 0.10
0.21 0.20 0.17 0.15 0.24 0.21 0.19 0.22 0.22 0.20 0.18 0.14 0.11 0.09 0.08 0.07 0.07 0.08 0.08 0.07 0.07 0.07 0.06 0.08 0.11 0.13 0.08 0.05 0.04 0.05 0.05 0.04 0.04 0.04 0.04 0.07 0.09 0.17 0.26 0.31 0.29 0.23 0.21 0.20 0.20 0.19 0.17 0.13 0.09 0.05 0.02 0.01 0.01 0.01 0.01 0.01 0.02 0.02 0.03 0.04 0.05 0.05 0.04 0.03 0.03 0.03 0.03 0.05 0.05 0.06 0.08 0.09 0.12 0.11 0.09 0.08 0.08 0.05 0.07 0.11 0.13 0.14 0.14 0.13 0.13
0.11 0.27 0.10 0.27 0.20 0.27 0.22 0.26 0.19 0.13 0.13 0.16 0.10 0.12 0.12 0.15 0.18 0.16 0.15 0.10 0.09 0.07 0.05 0.05 0.06 0.09 0.09 0.08 0.05 0.06 0.07 0.07 0.07 0.08 0.10 0.12 0.12 0.16 0.22 0.28 0.25 0.16 0.13 0.11 0.09 0.07 0.07 0.07 0.07 0.04 0.01 0.00 0.01 0.01 0.01 0.01 0.01 0.01 0.01 0.02 0.03 0.04 0.03 0.02 0.02 0.02 0.02 0.03 0.04 0.05 0.05 0.05 0.08 0.09 0.10 0.10 0.10 0.09 0.09 0.09 0.09 0.10 0.13 0.15 0.21